Regional Weather Roundup
Issued by NWS Cleveland, OH

Home | Current Version | Previous Version | Graphics & Text | Print | Product List | Glossary On
Versions: 1 2 3 4 5 6 7 8 9 10 11 12 13 14 15 16 17 18 19 20 21 22 23 24 25 26 27 28 29 30 31 32 33 34 35 36 37 38 39 40 41 42 43 44 45 46 47 48 49 50
000
ASUS41 KCLE 232102
RWRCLE
OHIO REGIONAL WEATHER ROUNDUP
NATIONAL WEATHER SERVICE CLEVELAND, OH
500 PM EDT WED MAY 23 2018

NOTE: "FAIR" INDICATES FEW OR NO CLOUDS BELOW 12,000 FEET WITH NO
SIGNIFICANT WEATHER AND/OR OBSTRUCTIONS TO VISIBILITY.

OHZ001>008-015>018-024>027-034-035-043-044-232200-
   NORTHWEST OHIO

CITY           SKY/WX    TMP DP  RH WIND       PRES   REMARKS
DEFIANCE       FAIR      78  52  40 VRB5      30.17F
FINDLAY        FAIR      78  52  40 N9        30.16F
TOLEDO EXPRESS FAIR      78  48  34 CALM      30.16F
TOLEDO EXEC    FAIR      78  48  34 CALM      30.17F
LIMA           FAIR      75  54  47 E8        30.18S
$$

OHZ009>014-019>023-028>033-038-089-232200-
   NORTHEAST OHIO

CITY           SKY/WX    TMP DP  RH WIND       PRES   REMARKS
CLE-HOPKINS    PTSUNNY   74  43  32 NW8       30.19F
CLE-LAKEFRONT  FAIR      65  56  72 W7        30.17S
CUY CO. ARPT   MOSUNNY   72  55  56 NW7       30.19S
LORAIN-ELYRIA  FAIR      74  43  32 N7        30.19S
ASHTABULA      FAIR      73  53  49 NW7       30.16F
AKRON-CANTON   FAIR      76  52  43 VRB3      30.17R
WOOSTER        FAIR      74  52  46 N7        30.18S
MANSFIELD      FAIR      74  53  48 NE8       30.19S
YOUNGSTOWN     FAIR      75  51  43 VRB7      30.15S
$$

OHZ042-051>053-060>062-070>072-077>081-232200-
  SOUTHWEST OHIO

CITY           SKY/WX    TMP DP  RH WIND       PRES   REMARKS
CINC-COVINGTON FAIR      80  55  42 E9        30.13F
CINC-LUNKEN    FAIR      79  59  50 NE7       30.13F
HAMILTON       FAIR      81  59  47 VRB6      30.14F
DAYTON         FAIR      77  56  48 NE10      30.17S
WRIGHT-PAT AFB FAIR      78  55  44 NE10      30.16S
DAYTON GENERAL FAIR      79  51  37 E5        30.15S
WILMINGTON     FAIR      76  59  55 VRB5      30.15F
$$

OHZ036-037-039>041-045>050-054>059-063>069-073>076-082>088-232200-
  CENTRAL AND SOUTHEAST OHIO

CITY           SKY/WX    TMP DP  RH WIND       PRES   REMARKS
COLUMBUS       FAIR      77  55  46 NE9G20    30.15F
OSU AIRPORT    FAIR      76  55  48 N10       30.15F
BOLTON FIELD   SUNNY     75  57  53 NE6       30.16F
RICKENBACK AFB FAIR      75  57  53 MISG      30.15S
NEWARK         FAIR      76  55  48 N9        30.15F
MARION         FAIR      76  54  46 NE10      30.18F
LANCASTER      FAIR      74  60  61 NE9       30.16F
ZANESVILLE     FAIR      74  55  51 N7        30.16S
NEW PHILLY     NOT AVBL
$$




USA.gov is the U.S. government's official web portal to all federal, state and local government web resources and services.